YAOGAN-33 (47302 NORAD) Tracking and Keplerian Element Data

This shows tracking and keplerian element data for the satellite.

Feedback or suggestion? Click here.




ElementValue
Catalog47302
NameYAOGAN-33
Epoch Orbit285
Epoch Day16.1720382
Epoch Year2021
RAAN266.0397
Inclination98.2703
Eccentricity0.0001086
Argument of Perigee94.6448
Mean Anonmoly265.4877
Mean Motion14.59118104
Decay Rate3.4E-07
L11 47302U 20103A 21016.17203820 .00000034 00000-0 17097-4 0 9990
L22 47302 98.2703 266.0397 0001086 94.6448 265.4877 14.59118104 2858

Live tracking and technical data element details for YAOGAN-33 (NORAD 47302). YAOGAN-33 can be tracked NOW for your location showing map with azimuth and elevation plus other details from your city location.

Track the satellite on the map from your city or location and see movement details for azimuth, elevation, latitude, longitude, range, height, and movement on the map or in text.







IsCatalogInMostPopularTable: catalog: 47302, numindb: 8
Update: records affected: 1



GetName: 47302 YAOGAN-33

Hit Count: updated at: Sun, 17 Jan 2021 09:46:49 GMT